Regional Weather Roundup
Issued by NWS

Home | Current Version | Previous Version | Graphics & Text | Print | Product List | Glossary On
Versions: 1 2 3 4 5 6 7 8 9 10 11 12 13 14 15 16 17 18 19 20 21 22 23 24 25 26 27 28 29 30 31 32 33 34 35 36 37 38 39 40 41 42 43 44 45 46 47 48 49 50
000
ASUS43 KIND 261159
RWRIN

WEATHER ROUNDUP FOR INDIANA
NATIONAL WEATHER SERVICE INDIANAPOLIS IN
700 AM EST WED NOV 26 2014

NOTE: "FAIR" INDICATES FEW OR NO CLOUDS BELOW 12,000 FEET WITH NO
SIGNIFICANT WEATHER AND/OR OBSTRUCTIONS TO VISIBILITY.

* - STATION DOES NOT REPORT WEATHER SUCH AS PRECIPITATION OR FOG.

+ - STATION NOT QUALITY CONTROLLED BY THE NATIONAL WEATHER SERVICE.
    USE DATA WITH CAUTION...ESPECIALLY DEWPOINT AND RELATIVE
    HUMIDITY OBSERVATIONS.

INZ001>003-010>013-019-020-261300-
NORTHWEST INDIANA

CITY           SKY/WX    TMP DP  RH WIND       PRES   REMARKS
VALPARAISO     NOT AVBL

$$

LMZ046-743>745-261300-
SOUTHERN LAKE MICHIGAN

STATION/POSITION TIME  TEMP WIND        PRES
                       AIR  DIR/SP/G
                 (UTC) (F)  (DEG/KT/KT) (MB)
MICHIGAN CITY    1100   23   80/  7/  9   N/A

$$

INZ004-005-014>016-021>024-261300-
NORTH CENTRAL INDIANA

CITY           SKY/WX    TMP DP  RH WIND       PRES   REMARKS
ELKHART        CLOUDY    25  18  74 E7        30.17  WCI  17
GOSHEN         CLOUDY    25  19  78 SE6       30.15F WCI  18
6HR MIN TEMP:  24; 6HR MAX TEMP:  25;

SOUTH BEND     CLOUDY    25  19  78 E5        30.16F WCI  19
6HR MIN TEMP:  24; 6HR MAX TEMP:  25;


$$

INZ006>009-017-018-025>027-261300-
NORTHEAST INDIANA

CITY           SKY/WX    TMP DP  RH WIND       PRES   REMARKS
ANGOLA *+      CLOUDY    25  18  74 CALM      30.14F
FORT WAYNE     CLOUDY    25  19  78 N7        30.16F WCI  17
6HR MIN TEMP:  25; 6HR MAX TEMP:  26;


$$

INZ028-029-035-036-043>045-051>053-261300-
WEST CENTRAL INDIANA

CITY           SKY/WX    TMP DP  RH WIND       PRES   REMARKS
GREENCASTLE +  CLOUDY    25  21  86 E3        30.13F
LAFAYETTE      CLOUDY    24  19  81 NE7       30.15S WCI  16
6HR MIN TEMP:  24; 6HR MAX TEMP:  25;

TERRE HAUTE    PTCLDY    23  19  85 E6        30.14S WCI  16
6HR MIN TEMP:  21; 6HR MAX TEMP:  26;


$$

INZ030>032-037>040-046>048-054>057-064-065-261300-
CENTRAL INDIANA

CITY           SKY/WX    TMP DP  RH WIND       PRES   REMARKS
INDIANAPOLIS   CLOUDY    26  20  77 NE6       30.12S WCI  19
6HR MIN TEMP:  26; 6HR MAX TEMP:  27;

-EAGLE CREEK   CLOUDY    26  20  77 N6        30.13S WCI  19
6HR MIN TEMP:  25; 6HR MAX TEMP:  26;

KOKOMO *+      CLOUDY    25  19  80 E5        30.16R WCI  19
MT COMFORT *+  CLOUDY    27  18  69 CALM      30.14R
SHELBYVILLE    CLOUDY    29  22  75 N7        30.13R WCI  22
6HR MIN TEMP:  29; 6HR MAX TEMP:  30;


$$

INZ033-034-041-042-049-050-058-059-261300-
EAST CENTRAL INDIANA

CITY           SKY/WX    TMP DP  RH WIND       PRES   REMARKS
MUNCIE         CLOUDY    27  22  81 N5        30.13S WCI  22
6HR MIN TEMP:  27; 6HR MAX TEMP:  28;


$$

INZ060-061-067>069-081>083-085>088-261300-
SOUTHWEST INDIANA

CITY           SKY/WX    TMP DP  RH WIND       PRES   REMARKS
EVANSVILLE     CLEAR     24  19  81 CALM      30.16R
6HR MIN TEMP:  24; 6HR MAX TEMP:  29;

HUNTINGBURG *+ CLEAR     25  19  80 NE3       30.14S
6HR MIN TEMP:  23; 6HR MAX TEMP:  27;


$$

INZ062-063-066-070>080-084-089>092-261300-
SOUTH CENTRAL AND SOUTHEAST INDIANA

CITY           SKY/WX    TMP DP  RH WIND       PRES   REMARKS
BLOOMINGTON    CLOUDY    27  23  85 E6        30.12F WCI  20
6HR MIN TEMP:  26; 6HR MAX TEMP:  28;


$$




USA.gov is the U.S. government's official web portal to all federal, state and local government web resources and services.